Location: Observatoire de Paris
(48.8363°N, 2.3365°E)
Time: 11:02:36
(UTC+01:00)

EO-79 - Visible Passes

Search period start: 27 September 2021 00:00
Search period end: 07 October 2021 00:00
Orbit: 591 x 607 km, 97.9° (Epoch: 26 September)

Date Brightness Start Highest point End Pass type
(mag) Time Alt. Az. Time Alt. Az. Time Alt. Az.
27 Sep ? 02:56:32 10° N 02:56:57 12° N 02:56:57 12° N visible
28 Sep ? 03:07:32 10° N 03:07:51 12° N 03:07:51 12° N visible
29 Sep ? 03:18:35 10° N 03:18:44 11° N 03:18:44 11° N visible
